Location: Newark
(21.1200°N, 73.4000°E)
Time: 10:31:15
(UTC+00:00)

Vanguard 2 Rocket - Pass Details

Date: 22 January 2020
Orbit: 554 x 3327 km, 32.9° (Epoch: 19 February)

Event Time Altitude Azimuth Distance (km) Brightness Sun altitude
Exits shadow 22:53:38 12° 65° (ENE) 2,030 9.2 -39.7°
Drops below altitude 10° 22:53:57 10° 65° (ENE) 2,167 9.3 -39.6°
Sets 22:56:47 0° 64° (ENE) 3,355 10.5 -39.0°
